Regional Weather Roundup
Issued by NWS

Home | Current Version | Previous Version | Text Only | Print | Product List | Glossary Off
Versions: 1 2 3 4 5 6 7 8 9 10 11 12 13 14 15 16 17 18 19 20 21 22 23 24 25 26 27

000
ASUS45 KBOU 120110
RWRCO

WEATHER ROUNDUP FOR COLORADO
NATIONAL WEATHER SERVICE DENVER/BOULDER CO
600 PM MST MON DEC 11 2017

NOTE: "FAIR" INDICATES FEW OR NO CLOUDS BELOW 12000 FEET WITH NO
SIGNIFICANT WEATHER AND/OR OBSTRUCTIONS TO VISIBILITY.

COZ001>005-013-030-031-120200-
...NORTHWEST COLORADO...

CITY           SKY/WX    TMP DP  RH WIND       PRES   REMARKS
CRAIG          FAIR      21  15  78 CALM      30.50R
HAYDEN         FAIR      28  15  58 S6        30.52R WCI  22
MEEKER         FAIR      31   2  29 CALM      30.48R
RABBIT EARS PA FAIR      28   7  40 W9        30.56R WCI  20
STEAMBOAT SPGS FAIR      32  12  43 CALM      30.51S
WALDEN         FAIR      23   9  54 NE3       30.53S
$$

COZ006>008-011-120200-
...WEST CENTRAL VALLEYS...

CITY           SKY/WX    TMP DP  RH WIND       PRES   REMARKS
GRAND JUNCTION FAIR      33   0  24 CALM      30.45R
MONTROSE       FAIR      34   1  24 S6        30.48R WCI  29
EAGLE          FAIR      26  13  57 E8        30.55R WCI  18
RIFLE          FAIR      37   2  22 VRB3      30.47R
DELTA          FAIR      40  -4  15 CALM      30.47R
NUCLA          FAIR      43  -6  13 E5        30.48
$$

COZ017>023-064>068-120200-
...SOUTHWEST COLORADO...

CITY           SKY/WX    TMP DP  RH WIND       PRES   REMARKS
DURANGO        FAIR      38   5  25 W3        30.40R
CORTEZ         FAIR      25   0  33 E6        30.41R WCI  18
PAGOSA SPRINGS FAIR      36  -4  18 CALM      30.43R
TELLURIDE      FAIR      40  -2  16 SW3       30.53R
WOLF CREEK PAS FAIR      32  -9  16 NW9       30.62S WCI  24
$$

COZ009-010-012-014-032>034-037-058>063-120200-
...CENTRAL COLORADO...

CITY           SKY/WX    TMP DP  RH WIND       PRES   REMARKS
ASPEN          FAIR      32  11  41 S7        30.50R WCI  26
BUENA VISTA    FAIR      39   4  23 W10       30.46R
COPPER MTN     NOT AVBL
BERTHOUD PASS  FAIR      19   9  63 NW17G29   30.55S WCI   4
COTTONWOOD PAS FAIR      41   3  20 NW5       30.52R
GUNNISON       FAIR      30   5  34 NW6       30.49R WCI  24
KREMMLING      FAIR      19  12  73 CALM      30.56R
LEADVILLE      FAIR      27   5  39 N6        30.53R WCI  20
MONARCH PASS   FAIR      28   0  29 W10       30.69R WCI  19
SALIDA         FAIR      42  -1  16 W7        30.53R
SUNLIGHT       FAIR      32   7  34 N3        30.62S
WILKERSON PASS FAIR      30   0  27 N7G21     30.58R WCI  23
$$

COZ069>075-120200-
...SAN LUIS VALLEY/SANGRE DE CRISTO MOUNTAINS...

CITY           SKY/WX    TMP DP  RH WIND       PRES   REMARKS
ALAMOSA        FAIR      32  -7  18 W6        30.43R WCI  26
DEL NORTE      FAIR      29  -7  21 W7        30.46R WCI  22
LA VETA PASS   FAIR      28   0  29 N16         N/A  WCI  17
SAGUACHE       FAIR      36   1  23 CALM      30.46R
$$

COZ035-036-038>040-120200-
...NORTHERN COLORADO FRONT RANGE...

CITY           SKY/WX    TMP DP  RH WIND       PRES   REMARKS
DENVER INTL AP FAIR      37   5  26 E8        30.42R
DMNS CITY PARK NOT AVBL
AURORA         PTCLDY    34   5  29 SE8       30.43R WCI  28
FRONT RANGE AP PTCLDY    41   7  24 NE6       30.43R
ERIE MUNI ARPT FAIR      39   6  25 S7        30.47R
BOULDER MUN AP FAIR      43   9  24 S3        30.41R
CENTENNIAL     FAIR      44   8  23 SE5       30.43R
BROOMFIELD     PTCLDY    46   7  19 S5        30.43R
FORT COLLINS   FAIR      43  13  29 NW10      30.40R
LONGMONT       FAIR      35  10  35 NW6       30.43R WCI  30
$$

COZ041-046-047-076>085-087-088-120200-
...PIKES PEAK/PALMER DIVIDE AND SOUTHERN FOOTHILLS...

CITY           SKY/WX    TMP DP  RH WIND       PRES   REMARKS
COLO. SPRINGS  FAIR      43   4  19 NW5       30.45R
A. F. ACADEMY  FAIR      36   0  21 N8        30.45R
SCHRIEVER AFB  FAIR      40   3  21 N10       30.45R
CHEYENNE MTN   FAIR      41  -1  17 CALM      30.41R
ELLICOTT         N/A    N/A N/A N/A CALM      30.43R
FALCON         FAIR      39   1  20 N10       30.46R
FORT CARSON    FAIR      44  -1  15 W8        30.43R
LIMON          FAIR      29   5  36 CALM      30.41R
MONUMENT HILL  FAIR      28   3  34 CALM      30.47R
CANON CITY     FAIR      41   3  20 CALM      30.43R
WALSENBURG     FAIR      37   1  22 W3        30.46R
TRINIDAD       FAIR      41   4  21 E3        30.44R
$$

COZ042>045-048>051-090-091-120200-
...NORTHEAST COLORADO...

CITY           SKY/WX    TMP DP  RH WIND       PRES   REMARKS
GREELEY ARPT   FAIR      38  10  31 SE5       30.40R
AKRON          FAIR      39   7  26 N14       30.39R
BURLINGTON     FAIR      42  10  27 N12       30.36R
WRAY           FAIR      41   9  26 NW7       30.38R
YUMA           FAIR      41  10  28 NW9       30.38R
STERLING       FAIR      34  10  37 N10       30.38R WCI  26
HOLYOKE        FAIR      43   9  24 N13       30.38R
FORT MORGAN    FAIR      42   5  21 N16       30.39R
$$

COZ086-089-092>099-120200-
...SOUTHEAST COLORADO...

CITY           SKY/WX    TMP DP  RH WIND       PRES   REMARKS
PUEBLO         FAIR      36   1  22 NE5       30.41R
LA JUNTA       FAIR      49   9  19 NE5       30.40R
LAMAR          FAIR      39   7  26 W3        30.37R
SPRINGFIELD      N/A     34   8  33 NW13      30.37R WCI  25
$$




USA.gov is the U.S. government's official web portal to all federal, state and local government web resources and services.